Погода в Кирове

Россия / Саратовская область     50°48′22″N   46°41′57″E
темп.,
°C
ветер,
м/с
пор.,
м/с
влажн.,
%
обл.,
%
осадки,
мм/ч
давл.,
гПа
погр.,
м
17 октября, вс
вс1701:00+8в2365100 0.0 102029
04:00+9всв3464100 0.0 102096
07:00+8всв4669100 0.0 1018111
10:00+11всв3457100 0.0 1018177
13:00+15вюв4438100 0.0 1017423
16:00+15юв3339100 0.0 1016416
19:00+9вюв3680100 1.3 1016175
22:00+10ююв2389100 3.6 1016110
18 октября, пн
пн1801:00+10ссз2293100 3.8 101590
04:00+11с118796 3.8 101415
07:00+10св2288100 0.0 101331
10:00+12с2277100 0.0 1013248
13:00+11ссз238699 0.2 1013214
16:00+13ссз017664 0.2 1012103
19:00+11юз227656 0.0 101210
22:00+9зсз3668100 0.0 101286
19 октября, вт
вт1901:00+8сз357123 0.0 101375
04:00+6зсз3478100 0.0 101354
07:00+6з3376100 0.0 101263
10:00+9зсз3461100 0.0 1012298
13:00+11з4549100 0.0 10121213
16:00+11з444995 0.0 10111429
19:00+8зсз3479100 0.1 1012282
22:00+7зсз4584100 0.3 1011959
20 октября, ср
ср2001:00+5ссз81090100 0.4 1011738
04:00+5ссз597884 0.5 1012732
07:00+4сз6107936 0.0 1014580
10:00+5ссз810645 0.0 1016874
13:00+7ссз9105197 0.0 10171675
16:00+4сз81158100 0.1 10191453
19:00+4сз61059100 0.0 10211448
22:00+3сз5106889 0.1 1022601
21 октября, чт
чт2101:00+1сз597522 0.0 1023356
04:000зсз488429 0.0 1024174
07:00−1зсз36815 0.0 1025127
10:00+3з35572 0.0 1025479
13:00+6з5646100 0.0 10241001
16:00+8зюз573967 0.0 10231029
19:00+5ююз495211 0.0 1022150
22:00+5ююз51254100 0.0 1021255